Regional Weather Roundup
Issued by NWS

Home | Current Version | Previous Version | Graphics & Text | Print | Product List | Glossary On
Versions: 1 2 3 4 5 6 7 8 9 10 11 12 13 14 15 16 17 18 19 20 21 22 23 24 25 26 27
000
ASUS45 KTFX 021610
RWRMT
MONTANA REGIONAL WEATHER ROUNDUP
NATIONAL WEATHER SERVICE GREAT FALLS MT
1000 AM MDT MON MAY 02 2016

NOTE: "FAIR" INDICATES FEW OR NO CLOUDS BELOW 12000 FEET WITH NO
SIGNIFICANT WEATHER AND/OR OBSTRUCTIONS TO VISIBILITY.

MTZ001>007-043-021700-
WEST OF THE DIVIDE

CITY           SKY/WX    TMP DP  RH WIND       PRES   REMARKS
KALISPELL      SUNNY     56  40  55 VRB3      30.19S
MISSOULA       SUNNY     51  38  60 CALM      30.23F
BUTTE          SUNNY     47  29  49 CALM      30.26S
MULLAN PASS    SUNNY     50  32  50 VRB6      30.23S
$$

MTZ008-052>055-021700-
SOUTHWEST MONTANA

CITY           SKY/WX    TMP DP  RH WIND       PRES   REMARKS
BOZEMAN        SUNNY     50  33  52 S3        30.25S
DILLON         SUNNY     49  30  48 W5        30.25R
ENNIS          SUNNY     48  30  49 S3        30.30F
$$

MTZ009-010-012-014-046-048-049-054-021700-
EAST SLOPES AND CENTRAL MONTANA

CITY           SKY/WX    TMP DP  RH WIND       PRES   REMARKS
CUT BANK       SUNNY     56  39  53 W3        30.19S
MALMSTROM AFB  SUNNY     54  37  53 SW7       30.21S
HELENA         SUNNY     51  35  54 NE6       30.24S
$$

MTZ011-013-016-021-045-047-050-051-021700-
NORTH CENTRAL MONTANA

CITY           SKY/WX    TMP DP  RH WIND       PRES   REMARKS
HAVRE          SUNNY     57  40  52 SW14      30.17S
LEWISTOWN      SUNNY     57  35  43 NW6       30.20F
N BAR RANCH      N/A     57  30  35 NW7G15    30.21S
$$

MTZ017>020-022>027-061-062-021700-
NORTHEAST MONTANA

CITY           SKY/WX    TMP DP  RH WIND       PRES   REMARKS
GLASGOW        SUNNY     61  38  42 NW10      30.12S
JORDAN           N/A     62  39  42 NW13      30.14R
SIDNEY         SUNNY     64  36  34 NW20      30.04F
WOLF POINT     SUNNY     70  38  31 NW17      30.07F
$$

MTZ028>42-056>058-021700-
SOUTHCENTRAL AND SOUTHEAST MONTANA

CITY           SKY/WX    TMP DP  RH WIND       PRES   REMARKS
BAKER          SUNNY     60  33  36 NW20G26   30.11F
BILLINGS       MOSUNNY   53  36  52 SW9       30.20S
LIVINGSTON     SUNNY     54  31  41 NW12      30.22F
MILES CITY     SUNNY     59  39  47 W9        30.13F
$$

REGIONAL REPORTS...DAKOTAS

CITY           SKY/WX    TMP DP  RH WIND       PRES   REMARKS
WILLISTON      SUNNY     67  38  34 N16       30.03S
MINOT          SUNNY     65  36  34 N8        29.97R
DICKINSON      MOSUNNY   59  34  39 NW24G30   30.00F
BEACH            N/A     61  32  33 NW21G28   30.10F
CROSBY           N/A     64  32  29 N14       30.04S
WATFORD CITY     N/A     63  37  39 NW16      30.02S
BISMARCK       CLOUDY    52  46  80 E7        30.02R
GRAND FORKS    MOSUNNY   64  32  30 SE5       30.01F
FARGO          SUNNY     63  31  30 VRB3      30.02F
BUFFALO SD       N/A     62  30  29 NW20      30.02F
RAPID CITY     PTSUNNY   58  33  39 N7        30.12F
$$

REGIONAL REPORTS...WYOMING/IDAHO/WASHINGTON

CITY           SKY/WX    TMP DP  RH WIND       PRES   REMARKS
GILLETTE       SUNNY     54  32  43 NW14      30.17R
SHERIDAN       SUNNY     58  32  37 N6        30.18S
BUFFALO WY       N/A    N/A N/A N/A MISG      30.19S
CODY           SUNNY     52  27  37 S5        30.21F
YELLOWSTONE LA   N/A     33  19  56 E3        30.32S
IDAHO FALLS    SUNNY     52  24  33 VRB6      30.27R
SALMON         SUNNY     48  32  53 CALM      30.24F
BOISE          SUNNY     61  35  37 SE9       30.18R
SPOKANE        MOSUNNY   60  41  49 VRB6      30.13S
$$

REGIONAL REPORTS...ALBERTA

CITY           SKY/WX    TMP DP  RH WIND       PRES   REMARKS
EDMONTON       SUNNY     68  43  40 SW5       30.07F
CALGARY        MOSUNNY   64  32  29 S6        30.14S
LETHBRIDGE     MOSUNNY   63  36  36 W7        30.15F
MEDICINE HAT   MOSUNNY   61  41  48 SW10      30.13F
WATERTON GATE    N/A     59  28  31 SW9         N/A
MILK RIVER       N/A     61  39  44 W3          N/A
ONEFOUR          N/A     61  36  39 NW9         N/A
$$

REGIONAL REPORTS...SASKATCHEWAN

CITY           SKY/WX    TMP DP  RH WIND       PRES   REMARKS
SWIFT CURRENT  SUNNY     63  37  39 W13G18    30.09S
REGINA         MOSUNNY   63  34  34 VRB2      30.06R
SASKATOON      PTSUNNY   63  36  36 VRB2      30.07S
CYPRESS HILLS    N/A     61  32  33 NW8         N/A
VAL MARIE        N/A     66  36  32 NW10        N/A
ROCKGLEN         N/A     64  36  34 NW14G20     N/A
ASSINIBOIA       N/A     72  39  30 E2          N/A
$$




USA.gov is the U.S. government's official web portal to all federal, state and local government web resources and services.